Date String (YYYY-MM-DD hh:mm:ss) UTC,Instrument flags,absolute air pressure of the measurement (hPa),sample flow rate (lpm),inlet stack bypass flow (lpm),air temperature of the measurement (°C),ambient temperature measured by the external sensor (°C),aerosol sample conditioner tube jacket temperature (°C),OPC LED temperature (°C),internal box temperature (°C),relative humidity of the measurement (%),span deviation,mass concentration of particles derived from Lorenz-Mie calculation of OPC scattering (μg/m³),mass concentration of particles derived from Lorenz-Mie calculation of OPC scattering (μg/m³),mass concentration of particles derived from Lorenz-Mie calculation of OPC scattering (μg/m³)
DateTimeUTC,F1_M11,P_M11,Q1_M11,Q2_M11,T1_M11,T2_M11,T3_M11,T4_M11,T5_M11,U1_M11,ZSPAN_M11,X2_M11,X0_M11,X1_M11
2023-08-27 20:00:00,SystemResetWarning,0834.2,5.00,000.00,029.0,024.2,000.0,037.1,029.5,31.6,-000.3,0006.87,0009.64,0006.61
2023-08-27 20:01:00,SystemResetWarning,0834.2,5.00,000.00,028.9,024.0,000.0,037.0,029.4,32.5,-000.4,0007.02,0009.84,0006.72
2023-08-27 20:02:00,SystemResetWarning,0834.2,5.01,000.00,028.8,024.2,000.0,037.0,029.3,32.8,-000.6,0007.09,0009.94,0006.79
2023-08-27 20:03:00,SystemResetWarning,0834.2,5.00,000.00,028.7,024.6,000.0,037.0,029.4,32.7,-001.0,0007.12,0009.92,0006.83
2023-08-27 20:04:00,SystemResetWarning,0834.5,5.00,000.00,028.7,025.1,000.0,037.1,029.5,33.7,-001.1,0007.17,0010.15,0006.85
2023-08-27 20:05:00,SystemResetWarning,0834.4,5.00,000.00,028.7,025.6,000.0,037.1,029.6,34.4,-001.1,0007.18,0010.25,0006.84
2023-08-27 20:06:00,SystemResetWarning,0834.5,5.00,000.00,028.7,025.9,000.0,037.1,029.8,34.5,-000.5,0007.22,0010.31,0006.84
2023-08-27 20:07:00,SystemResetWarning,0834.3,5.00,000.00,028.7,026.2,000.0,037.1,029.8,34.2,-000.4,0007.16,0010.20,0006.80
2023-08-27 20:08:00,SystemResetWarning,0834.4,4.98,000.00,028.8,025.5,000.0,037.0,029.7,34.1,-000.1,0007.10,0010.13,0006.76
2023-08-27 20:09:00,SystemResetWarning,0834.3,4.99,000.00,028.7,024.3,000.0,036.8,029.4,34.6,-000.4,0007.05,0010.14,0006.69
2023-08-27 20:10:00,SystemResetWarning,0834.6,5.02,000.00,028.6,024.0,000.0,036.7,029.3,35.4,-000.4,0006.96,0010.06,0006.60
2023-08-27 20:11:00,SystemResetWarning,0834.7,5.00,000.00,028.8,024.2,000.0,036.7,029.4,36.0,-000.5,0006.86,0009.96,0006.50
2023-08-27 20:12:00,SystemResetWarning,0834.6,5.00,000.00,029.0,024.6,000.0,036.8,029.5,35.7,-000.4,0006.78,0009.84,0006.44
2023-08-27 20:13:00,SystemResetWarning,0834.3,5.01,000.00,029.4,025.0,000.0,036.8,029.8,35.0,-000.3,0006.70,0009.73,0006.39
2023-08-27 20:14:00,SystemResetWarning,0834.3,4.98,000.00,029.8,025.5,000.0,036.9,030.0,33.4,0000.2,0006.68,0009.76,0006.35
2023-08-27 20:15:00,SystemResetWarning,0834.3,5.01,000.00,030.0,025.9,000.0,037.0,030.1,33.3,0000.6,0006.70,0009.59,0006.36
2023-08-27 20:16:00,SystemResetWarning,0834.4,5.01,000.00,030.1,026.2,000.0,037.1,030.2,33.0,0001.1,0006.69,0009.31,0006.36
2023-08-27 20:17:00,SystemResetWarning,0834.4,4.99,000.00,030.2,026.3,000.0,037.2,030.2,33.1,0000.8,0006.63,0009.25,0006.31
2023-08-27 20:18:00,SystemResetWarning,0834.4,4.99,000.00,030.3,025.0,000.0,037.2,029.9,32.7,0000.4,0006.58,0009.25,0006.26
2023-08-27 20:19:00,SystemResetWarning,0834.3,5.01,000.00,030.3,024.1,000.0,037.2,029.7,31.1,0000.2,0006.51,0009.26,0006.19
2023-08-27 20:20:00,SystemResetWarning,0834.4,5.01,000.00,030.2,024.0,000.0,037.3,029.6,31.6,0000.4,0006.44,0009.22,0006.14
2023-08-27 20:21:00,SystemResetWarning,0834.4,5.00,000.00,030.0,024.4,000.0,037.4,029.5,31.5,0000.4,0006.44,0009.23,0006.12
2023-08-27 20:22:00,SystemResetWarning,0834.4,4.99,000.00,029.9,024.8,000.0,037.5,029.6,31.4,0000.8,0006.40,0009.29,0006.08
2023-08-27 20:23:00,SystemResetWarning,0834.4,5.00,000.00,029.9,025.3,000.0,037.6,029.8,30.9,0000.9,0006.34,0009.26,0006.02
2023-08-27 20:24:00,SystemResetWarning,0834.4,5.00,000.00,029.9,025.7,000.0,037.6,029.9,30.7,0000.6,0006.30,0009.28,0005.96
2023-08-27 20:25:00,SystemResetWarning,0834.3,5.01,000.00,029.9,026.1,000.0,037.7,030.0,31.6,0000.3,0006.29,0009.30,0005.92
2023-08-27 20:26:00,SystemResetWarning,0834.4,5.01,000.00,029.9,026.4,000.0,037.7,030.1,31.4,0000.1,0006.19,0009.19,0005.84
2023-08-27 20:27:00,SystemResetWarning,0834.4,5.00,000.00,029.9,025.9,000.0,037.6,030.0,31.4,0000.1,0006.13,0009.15,0005.79
2023-08-27 20:28:00,SystemResetWarning,0834.3,4.98,000.00,029.9,024.5,000.0,037.5,029.7,31.6,-000.1,0006.11,0009.56,0005.78
2023-08-27 20:29:00,SystemResetWarning,0834.3,5.01,000.00,029.8,024.0,000.0,037.4,029.6,31.8,0000.1,0006.11,0009.70,0005.74
2023-08-27 20:30:00,SystemResetWarning,0834.3,5.01,000.00,029.6,024.1,000.0,037.4,029.4,31.9,0000.0,0006.06,0009.65,0005.68
2023-08-27 20:31:00,SystemResetWarning,0834.3,4.99,000.00,029.5,024.5,000.0,037.5,029.5,32.5,0000.0,0005.98,0009.40,0005.61
2023-08-27 20:32:00,SystemResetWarning,0834.3,4.99,000.00,029.4,025.0,000.0,037.5,029.6,33.3,0000.0,0005.88,0009.28,0005.53
2023-08-27 20:33:00,SystemResetWarning,0834.3,5.01,000.00,029.4,025.4,000.0,037.5,029.7,33.9,0000.0,0005.80,0009.10,0005.46
2023-08-27 20:34:00,SystemResetWarning,0834.6,5.01,000.00,029.4,025.8,000.0,037.5,029.9,34.1,0000.0,0005.73,0009.01,0005.40
2023-08-27 20:35:00,SystemResetWarning,0834.3,5.00,000.00,029.4,026.2,000.0,037.5,030.0,33.9,0000.0,0005.66,0008.91,0005.34
2023-08-27 20:36:00,SystemResetWarning,0834.5,5.00,000.00,029.4,026.4,000.0,037.5,030.0,34.5,0000.0,0005.55,0008.72,0005.25
2023-08-27 20:37:00,SystemResetWarning,0834.1,4.99,000.00,029.4,025.3,000.0,037.4,029.8,34.7,0000.0,0005.46,0008.59,0005.19
2023-08-27 20:38:00,SystemResetWarning,0834.1,5.01,000.00,029.3,024.2,000.0,037.3,029.5,35.3,0000.4,0005.44,0008.57,0005.18
2023-08-27 20:39:00,SystemResetWarning,0834.1,5.00,000.00,029.4,024.0,000.0,037.2,029.5,35.5,0000.5,0005.44,0008.33,0005.19
2023-08-27 20:40:00,SystemResetWarning,0834.1,5.00,000.00,029.6,024.3,000.0,037.2,029.6,34.9,0001.0,0005.42,0007.93,0005.22
2023-08-27 20:41:00,SystemResetWarning,0834.1,4.98,000.00,029.7,024.7,000.0,037.3,029.7,34.5,0001.3,0005.47,0007.93,0005.29
2023-08-27 20:42:00,SystemResetWarning,0834.1,4.99,000.00,029.8,025.1,000.0,037.3,029.8,34.4,0001.0,0005.55,0008.00,0005.36
2023-08-27 20:43:00,SystemResetWarning,0834.1,5.02,000.00,029.9,025.6,000.0,037.4,029.9,34.6,0000.5,0005.64,0008.21,0005.42
2023-08-27 20:44:00,SystemResetWarning,0834.1,4.97,000.00,030.0,026.0,000.0,037.5,030.0,35.1,0000.6,0005.71,0008.36,0005.48
2023-08-27 20:45:00,SystemResetWarning,0834.0,5.05,000.00,030.1,026.3,000.0,037.6,030.2,35.1,0000.1,0005.77,0008.39,0005.54
2023-08-27 20:46:00,SystemResetWarning,0834.1,4.96,000.00,030.4,026.5,000.0,037.6,030.3,34.2,0000.0,0005.80,0008.39,0005.59
2023-08-27 20:47:00,SystemResetWarning,0834.1,5.02,000.00,030.5,025.6,000.0,037.6,030.2,34.5,-000.1,0005.84,0008.43,0005.64
2023-08-27 20:48:00,SystemResetWarning,0834.0,4.99,000.00,030.6,024.3,000.0,037.5,030.0,35.0,-000.1,0005.91,0008.48,0005.69
2023-08-27 20:49:00,SystemResetWarning,0834.0,5.02,000.00,030.7,024.0,000.0,037.5,029.9,33.7,0000.1,0005.93,0008.48,0005.69
2023-08-27 20:50:00,SystemResetWarning,0834.0,4.98,000.00,030.6,024.3,000.0,037.6,029.7,33.6,-000.0,0005.91,0008.49,0005.66
2023-08-27 20:51:00,SystemResetWarning,0834.0,5.01,000.00,030.6,024.7,000.0,037.8,029.8,35.3,-000.0,0005.88,0008.56,0005.62
2023-08-27 20:52:00,SystemResetWarning,0833.9,5.02,000.00,030.7,025.2,000.0,037.9,030.0,35.7,-000.3,0005.82,0008.53,0005.54
2023-08-27 20:53:00,SystemResetWarning,0833.9,4.97,000.00,031.0,025.6,000.0,037.9,030.3,35.2,-000.8,0005.72,0008.41,0005.46
2023-08-27 20:54:00,SystemResetWarning,0833.9,5.03,000.00,031.3,026.0,000.0,038.1,030.5,35.0,-000.9,0005.61,0008.32,0005.38
2023-08-27 20:55:00,SystemResetWarning,0833.9,4.98,000.00,031.5,026.3,000.0,038.2,030.6,34.2,-000.8,0005.51,0008.16,0005.28
2023-08-27 20:56:00,SystemResetWarning,0834.0,4.99,000.00,031.7,026.3,000.0,038.3,030.6,33.7,0000.0,0005.42,0008.10,0005.18
2023-08-27 20:57:00,SystemResetWarning,0833.9,5.00,000.00,031.8,025.0,000.0,038.2,030.3,34.0,0000.0,0005.33,0008.06,0005.08
2023-08-27 20:58:00,SystemResetWarning,0834.0,5.00,000.00,031.8,024.1,000.0,038.2,030.2,33.3,-000.3,0005.23,0008.00,0004.98
2023-08-27 20:59:00,SystemResetWarning,0834.0,5.00,000.00,031.8,024.1,000.0,038.3,030.1,33.7,0000.0,0005.11,0007.88,0004.87
